CAPE
0 0 0 0 0 0 0 0 0 0 0 0 0 0 0 0 0 150 144 989 1626 1297 1081 926 866 948 1020 1130 1076 990 948 870 551 503 553 549 584 684 890 1030 1274 1443 1335 1113 1121 1135 1222 1198 749
0 0 0 0 0 0 0 0 0 0 0 0 0 0 0 0 0 8 232 1167 1735 1499 1070 1037 952 986 1060 1223 1239 1234 1211 973 657 651 671 649 756 940 1013 1274 1414 1497 1371 1245 1263 1216 1183 1040 770
0 0 0 0 0 0 0 0 0 0 0 0 0 0 0 0 0 48 693 1679 1578 1819 1233 1073 1045 1067 1153 1325 1373 1358 1335 1054 787 750 827 830 834 1035 1136 1253 1293 1423 1394 1415 1496 1287 916 843 760
0 0 0 0 0 0 0 0 0 0 0 0 0 0 0 0 0 384 456 1851 2049 2067 1850 1248 1080 1132 1212 1412 1507 1470 1334 1104 944 887 980 1058 972 1102 1167 1233 1339 1493 1450 1500 1600 1081 780 743 721
0 0 0 0 0 0 0 0 0 0 0 0 0 0 0 0 15 445 437 1784 2121 2062 1905 1572 1102 1076 1254 1507 1618 1564 1389 1257 1179 1147 1115 1189 1135 1136 1155 1238 1359 1535 1541 1572 1472 831 652 646 619
0 0 0 0 0 0 0 0 0 0 0 0 0 0 0 0 0 256 1035 772 2515 2190 1773 1604 1315 1113 1060 1376 1620 1650 1571 1468 1412 1394 1279 1291 1255 1178 1189 1230 1358 1540 1593 1554 1274 733 595 546 533
0 0 0 0 0 0 0 0 0 0 0 0 0 0 0 0 0 0 0 268 2260 2689 2260 1722 1471 1205 1030 1118 1365 1515 1549 1554 1525 1500 1403 1416 1321 1219 1211 1243 1436 1562 1587 1474 1126 714 566 500 451
0 0 0 0 0 0 0 0 0 0 0 0 0 0 0 0 0 0 0 0 433 2698 2640 2089 1734 1440 906 966 1117 1226 1248 1315 1413 1488 1462 1470 1388 1310 1262 1307 1455 1491 1399 1276 1030 689 538 464 397
0 0 0 0 0 0 0 0 0 0 0 0 0 0 0 0 0 0 0 0 0 980 2722 2240 1971 1672 1015 865 865 1072 1208 1288 1435 1556 1577 1509 1453 1401 1329 1302 1356 1430 1316 1198 1003 647 495 393 408
0 0 0 0 0 0 0 0 0 0 0 0 0 0 0 0 0 0 0 0 0 0 0 2480 2231 1925 1492 1011 1011 764 1002 1247 1434 1554 1530 1502 1465 1377 1320 1262 1231 1321 1327 1219 880 478 429 358 341
0 0 0 0 0 0 0 0 0 0 0 0 0 0 0 0 0 0 0 0 0 0 0 0 1789 2280 1952 1631 1272 1095 743 895 1269 1460 1451 1487 1503 1467 1347 1209 1235 1332 1312 1140 736 406 365 340 357
0 0 0 0 0 0 0 0 0 0 0 0 0 0 0 0 0 0 0 0 0 0 0 0 0 328 1760 1637 1715 1461 1200 645 821 1383 1520 1430 1293 1419 1249 1232 1163 1362 1345 1114 750 397 299 298 572
0 0 0 0 0 0 0 0 0 0 0 0 0 0 0 0 0 0 0 0 0 0 0 0 0 0 0 709 1224 1688 1472 1220 833 835 1392 1435 1281 1296 1514 1424 1384 1365 1396 1266 822 547 261 242 515
0 0 0 0 0 0 0 0 0 0 0 0 0 0 0 0 0 0 0 0 0 0 0 0 0 0 0 0 917 1518 1574 1515 1273 1147 1234 1655 1347 1388 1720 1520 1613 1561 1508 1296 1073 897 621 410 645
0 0 0 0 0 0 0 0 0 0 0 0 0 0 0 0 0 0 0 0 0 0 0 0 0 0 0 0 0 23 1559 1555 1577 1586 1553 1723 1710 1423 1835 1638 1675 1622 1573 1300 1140 1041 924 797 697
0 0 0 0 0 0 0 0 0 0 0 0 0 0 0 0 0 0 0 0 0 0 0 0 0 0 0 0 0 0 0 1029 1286 1639 1796 1695 1823 1543 1708 1727 1663 1697 1589 1464 1297 1182 1066 954 939
0 0 0 0 0 0 0 0 0 0 0 0 0 0 0 0 0 0 0 0 0 0 0 0 0 0 0 0 0 0 0 0 1201 1233 1733 1909 1846 1790 1536 1847 1727 1786 1742 1582 1392 1217 1114 828 866
0 0 0 0 0 0 0 0 0 0 0 0 0 0 0 0 0 0 0 0 0 0 0 0 0 0 0 0 0 0 0 0 98 1088 1312 1518 2076 1906 1712 1812 1864 1794 1776 1617 1543 1415 1204 930 777
0 0 0 0 0 0 0 0 0 0 0 0 0 0 0 0 0 0 0 0 0 0 0 0 0 0 0 0 0 0 0 0 0 11 890 1117 1416 1978 1856 1824 1785 1790 1556 1607 1713 1464 1318 1180 1077
0 0 0 0 0 0 0 0 0 0 0 0 0 0 0 0 0 0 0 0 0 0 0 0 0 0 0 0 0 0 0 0 0 0 0 918 1312 1587 1742 1658 1807 1828 1738 1485 1667 1696 1488 1425 1138
0 0 0 0 0 0 0 0 0 0 0 0 0 0 0 0 0 0 0 0 0 0 0 0 0 1 0 0 2 1 2 0 0 0 0 767 1069 1373 1178 1211 1686 1597 1621 1551 1574 1532 1455 1310 1139
0 0 0 0 0 0 0 0 0 0 0 0 0 0 0 0 0 0 0 0 0 0 0 1 0 1 0 0 0 2 2 3 0 0 0 1 818 1217 1362 1153 1408 1687 1300 1296 1401 1304 1035 774 829
0 0 0 0 0 0 0 0 0 0 0 0 0 0 0 0 0 0 0 0 0 0 0 0 0 1 0 1 1 2 2 7 0 0 0 0 98 1097 1197 1130 1171 1336 1151 951 852 948 856 669 617
0 0 0 0 0 0 0 0 0 0 0 0 0 0 0 0 0 0 0 0 1 0 0 0 1 2 2 1 2 1 2 1 2 0 3 2 252 741 976 1072 1087 1135 1033 844 751 732 686 617 530
0 0 0 0 0 0 0 0 0 0 0 0 1 0 0 0 0 1 0 1 1 1 2 0 2 3 3 1 1 1 2 2 8 11 37 16 1 0 0 38 258 417 982 852 824 734 957 794 704
0 0 0 0 0 0 0 0 0 0 0 0 0 0 0 0 0 2 0 1 1 1 1 1 2 2 3 1 1 2 1 3 1 4 1 2 3 0 0 0 0 0 1 827 936 773 1139 1063 876
0 0 0 0 0 0 0 1 1 0 0 0 0 0 1 0 0 1 0 0 1 1 0 0 2 2 3 2 2 2 2 1 2 4 3 7 5 5 0 0 1 0 0 0 80 699 821 924 843
0 0 0 4 0 0 0 0 0 0 0 0 1 1 1 0 0 0 0 0 0 0 0 0 2 1 2 2 2 2 3 3 3 3 8 4 7 9 2 4 7 6 1 0 8 2 3 34 323
0 0 0 0 1 0 0 0 0 0 0 0 0 1 1 0 0 1 0 0 0 0 0 1 2 0 0 1 2 2 3 4 2 3 5 7 7 9 11 10 9 9 9 8 8 8 7 6 5
0 0 0 0 0 2 0 0 0 0 0 0 0 1 0 0 0 1 0 0 0 0 1 1 1 0 0 0 0 1 2 0 1 1 2 2 2 3 4 6 5 8 7 5 5 8 4 7 6
CIN
-0 -0 -0 -0 -0 -0 -0 -0 -0 -0 -0 -0 -0 -0 -0 -0 -4 -161 -273 -78 -141 -234 -428 -462 -437 -399 -377 -348 -332 -308 -260 -246 -287 -262 -220 -188 -152 -126 -98 -82 -56 -31 -31 -43 -29 -28 -22 -28 -58
-0 -0 -0 -0 -0 -0 -0 -0 -0 -0 -0 -0 -0 -0 -0 -0 -0 -126 -234 -78 -142 -205 -368 -434 -423 -385 -361 -332 -310 -275 -230 -216 -247 -238 -196 -170 -129 -104 -94 -68 -46 -24 -25 -29 -22 -22 -22 -35 -61
-0 -0 -0 -0 -0 -0 -0 -0 -0 -0 -0 -0 -0 -0 -0 -0 -0 -95 -157 -98 -135 -170 -363 -387 -397 -359 -341 -302 -278 -270 -242 -221 -238 -218 -178 -149 -124 -100 -80 -68 -58 -36 -29 -16 -4 -21 -46 -51 -64
-0 -0 -0 -0 -0 -0 -0 -0 -0 -0 -0 -0 -0 -0 -0 -0 -42 -171 -195 -122 -115 -142 -226 -330 -372 -356 -320 -276 -251 -240 -247 -243 -235 -205 -160 -129 -122 -99 -77 -61 -43 -24 -22 -14 -9 -34 -75 -67 -63
-0 -0 -0 -0 -0 -0 -0 -0 -0 -0 -0 -0 -0 -0 -0 -0 -21 -77 -165 -96 -84 -96 -184 -246 -293 -321 -297 -236 -198 -196 -213 -215 -191 -169 -147 -123 -107 -99 -85 -63 -38 -16 -9 -8 -18 -67 -97 -95 -83
-0 -0 -0 -0 -0 -0 -0 -0 -0 -0 -0 -0 -0 -0 -0 -0 -0 -78 -60 -121 -43 -79 -134 -193 -243 -267 -287 -244 -186 -169 -178 -179 -164 -135 -136 -122 -103 -94 -82 -67 -43 -18 -3 -6 -27 -92 -109 -115 -105
-0 -0 -0 -0 -0 -0 -0 -0 -0 -0 -0 -0 -0 -0 -0 -0 -0 -0 -0 -231 -14 -58 -66 -107 -164 -228 -292 -265 -221 -197 -186 -162 -150 -130 -123 -114 -102 -93 -77 -64 -37 -20 -12 -15 -40 -84 -120 -132 -133
-0 -0 -0 -0 -0 -0 -0 -0 -0 -0 -0 -0 -0 -0 -0 -0 -0 -0 -0 -0 -185 -33 -56 -67 -107 -171 -296 -286 -247 -216 -204 -188 -155 -132 -120 -100 -89 -80 -73 -58 -34 -24 -29 -34 -54 -88 -125 -141 -154
-0 -0 -0 -0 -0 -0 -0 -0 -0 -0 -0 -0 -0 -0 -0 -0 -0 -0 -0 -0 -0 -17 -36 -73 -90 -128 -247 -285 -266 -217 -196 -180 -139 -108 -98 -98 -84 -70 -66 -62 -43 -22 -34 -45 -51 -93 -141 -174 -166
-0 -0 -0 -0 -0 -0 -0 -0 -0 -0 -0 -0 -0 -0 -0 -0 -0 -0 -0 -0 -0 -0 -0 -42 -60 -80 -125 -186 -199 -249 -207 -159 -116 -93 -96 -78 -72 -75 -77 -69 -52 -32 -26 -39 -74 -127 -153 -199 -193
-0 -0 -0 -0 -0 -0 -0 -0 -0 -0 -0 -0 -0 -0 -0 -0 -0 -0 -0 -0 -0 -0 -0 -0 -23 -50 -48 -85 -133 -154 -218 -197 -130 -88 -100 -89 -68 -56 -62 -72 -55 -33 -23 -42 -87 -169 -178 -189 -153
-0 -0 -0 -0 -0 -0 -0 -0 -0 -0 -0 -0 -0 -0 -0 -0 -0 -0 -0 -0 -0 -0 -0 -0 -0 -31 -13 -18 -72 -86 -120 -226 -195 -92 -71 -80 -97 -74 -87 -83 -88 -43 -39 -51 -88 -176 -195 -175 -76
-0 -0 -0 -0 -0 -0 -0 -0 -0 -0 -0 -0 -0 -0 -0 -0 -0 -0 -0 -0 -0 -0 -0 -0 -0 -0 -0 -38 -12 -50 -85 -133 -201 -191 -95 -75 -83 -82 -46 -50 -48 -51 -43 -31 -78 -114 -197 -194 -84
-0 -0 -0 -0 -0 -0 -0 -0 -0 -0 -0 -0 -0 -0 -0 -0 -0 -0 -0 -0 -0 -0 -0 -0 -0 -0 -0 -0 -41 -14 -44 -67 -103 -127 -117 -50 -71 -55 -18 -37 -28 -31 -36 -34 -45 -56 -80 -107 -57
-0 -0 -0 -0 -0 -0 -0 -0 -0 -0 -0 -0 -0 -0 -0 -0 -0 -0 -0 -0 -0 -0 -0 -0 -0 -0 -0 -0 -0 -4 -13 -45 -36 -70 -89 -56 -39 -55 -15 -30 -36 -36 -47 -45 -26 -25 -34 -29 -38
-0 -0 -0 -0 -0 -0 -0 -0 -0 -0 -0 -0 -0 -0 -0 -0 -0 -0 -0 -0 -0 -0 -0 -0 -0 -0 -0 -0 -0 -0 -0 -49 -32 -36 -50 -58 -49 -41 -16 -18 -36 -38 -35 -36 -20 -18 -25 -33 -34
-0 -0 -0 -0 -0 -0 -0 -0 -0 -0 -0 -0 -0 -0 -0 -0 -0 -0 -0 -0 -0 -0 -0 -0 -0 -0 -0 -0 -0 -0 -0 -0 -17 -31 -31 -38 -34 -31 -30 -22 -40 -30 -23 -40 -30 -36 -26 -31 -27
-0 -0 -0 -0 -0 -0 -0 -0 -0 -0 -0 -0 -0 -0 -0 -0 -0 -0 -0 -0 -0 -0 -0 -0 -0 -0 -0 -0 -0 -0 -0 -0 -167 -13 -22 -25 -33 -31 -23 -20 -21 -24 -25 -41 -34 -17 -27 -38 -26
-0 -0 -0 -0 -0 -0 -0 -0 -0 -0 -0 -0 -0 -0 -0 -0 -0 -0 -0 -0 -0 -0 -0 -0 -0 -0 -0 -0 -0 -0 -0 -0 -0 -245 -5 -11 -11 -31 -21 -23 -18 -21 -42 -48 -33 -28 -20 -24 -18
-0 -0 -0 -0 -0 -0 -0 -0 -0 -0 -0 -0 -0 -0 -0 -0 -0 -0 -0 -0 -0 -0 -0 -0 -0 -0 -0 -0 -0 -0 -0 -0 -0 -0 -0 -15 -8 -39 -30 -28 -23 -27 -41 -37 -18 -19 -25 -9 -13
-0 -0 -0 -0 -0 -0 -0 -0 -0 -0 -0 -0 -0 -0 -0 -0 -0 -0 -0 -0 -0 -0 -0 -0 -0 -0 -0 -0 -0 -0 -0 -0 -0 -0 -0 -3 -4 -23 -46 -42 -25 -29 -31 -35 -33 -28 -35 -26 -25
-0 -0 -0 -0 -0 -0 -0 -0 -0 -0 -0 -0 -0 -0 -0 -0 -0 -0 -0 -0 -0 -0 -1 -0 -0 -0 -0 -0 -0 -0 -0 -0 -0 -0 -0 -9 -1 -7 -37 -69 -37 -37 -53 -51 -60 -56 -65 -78 -56
-0 -0 -0 -0 -0 -0 -0 -0 -0 -0 -0 -0 -0 -0 -0 -0 -0 -0 -0 -0 -1 -0 -0 -0 -0 -0 -0 -0 -0 -0 -0 -2 -2 -0 -0 -0 -37 -6 -25 -46 -56 -55 -60 -103 -119 -92 -82 -110 -108
-0 -0 -0 -0 -0 -0 -0 -0 -0 -0 -0 -0 -0 -0 -0 -0 -0 -0 -0 -0 -0 -1 -0 -0 -0 -0 -0 -0 -0 -0 -0 -2 -3 -0 -33 -20 -39 -5 -2 -38 -24 -21 -57 -115 -150 -131 -116 -122 -124
-0 -0 -0 -0 -0 -0 -0 -0 -0 -0 -0 -0 -0 -0 -0 -0 -0 -0 -0 -0 -0 -0 -0 -0 -0 -0 -0 -0 -0 -0 -0 -0 -4 -6 -59 -117 -0 -0 -0 -9 -126 -52 -22 -47 -95 -89 -62 -93 -84
-0 -0 -0 -0 -0 -0 -0 -0 -0 -0 -0 -0 -0 -0 -0 -0 -0 -0 -0 -0 -0 -0 -0 -0 -0 -0 -0 -0 -0 -0 -0 -0 -0 -0 -0 -0 -0 -0 -0 -0 -0 -0 -0 -7 -18 -33 -21 -24 -41
-0 -0 -0 -0 -0 -0 -0 -0 -0 -0 -0 -0 -0 -0 -0 -0 -0 -0 -0 -0 -0 -0 -0 -0 -0 -0 -0 -0 -0 -0 -0 -0 -0 -0 -0 -0 -0 -0 -0 -0 -0 -0 -0 -0 -89 -10 -18 -19 -35
-0 -0 -1 -7 -0 -0 -0 -0 -0 -0 -0 -0 -0 -0 -0 -0 -0 -0 -0 -0 -0 -0 -0 -0 -0 -0 -0 -0 -0 -0 -0 -0 -0 -0 -0 -0 -0 -0 -0 -0 -0 -0 -0 -0 -0 -0 -0 -63 -44
-0 -0 -0 -0 -2 -0 -0 -0 -0 -0 -0 -0 -0 -0 -0 -0 -0 -0 -0 -0 -0 -0 -0 -0 -0 -0 -0 -0 -0 -0 -0 -0 -0 -0 -0 -0 -0 -0 -0 -0 -0 -0 -0 -0 -0 -0 -0 -0 -0
-6 -0 -0 -1 -0 -5 -9 -0 -0 -0 -0 -0 -0 -0 -0 -0 -0 -0 -0 -0 -0 -0 -0 -0 -0 -0 -0 -0 -0 -0 -0 -0 -0 -0 -0 -0 -0 -0 -0 -0 -0 -0 -0 -0 -0 -0 -0 -0 -0
Wind_Speed
26 26 24 21 18 17 20 23 24 18 18 18 18 18 17 20 20 14 18 22 14 10 6 5 5 4 6 8 10 10 10 11 10 11 12 12 12 12 12 13 14 14 15 16 16 15 15 15 15
24 23 17 19 19 22 20 21 15 16 15 18 19 18 18 16 15 16 20 24 13 10 6 6 5 3 4 5 7 8 9 9 9 9 10 11 11 11 11 11 11 12 13 14 15 15 15 15 15
23 17 18 17 17 19 16 19 16 15 16 19 19 20 19 17 19 16 22 25 24 11 7 6 6 4 2 3 4 6 7 8 8 8 9 9 10 10 10 10 10 10 11 12 13 14 15 14 14
19 18 17 20 22 22 19 29 17 16 17 18 17 19 20 20 19 19 24 26 24 10 9 6 8 5 3 2 2 4 5 6 7 7 7 8 9 9 9 9 9 9 9 10 11 12 14 14 14
17 17 20 21 24 25 30 28 17 19 19 22 20 19 16 21 21 22 24 24 19 15 11 9 7 4 5 4 3 2 3 3 4 5 5 6 7 8 8 8 8 8 8 8 9 10 12 13 13
19 17 22 25 26 27 30 27 18 16 17 19 20 17 16 20 23 22 23 24 18 15 14 12 10 5 5 5 4 2 1 1 3 4 5 5 7 7 8 8 7 7 7 8 8 9 10 11 12
17 21 23 28 31 29 25 21 19 16 17 19 17 14 15 23 24 25 26 25 21 17 16 14 13 9 7 5 5 4 3 2 1 2 3 5 6 6 7 7 7 7 7 7 7 8 8 9 10
18 22 24 25 26 25 23 21 23 21 19 18 19 18 23 27 28 28 28 29 25 19 16 15 13 11 10 9 8 7 6 6 4 2 2 2 2 4 5 6 8 8 7 6 6 6 7 8 8
17 19 20 16 22 26 25 24 25 23 24 23 24 21 27 29 30 31 30 31 31 25 19 16 15 12 9 12 12 11 10 9 7 5 3 2 1 2 2 4 6 6 7 6 5 6 6 7 7
16 17 19 18 23 26 25 26 28 27 29 27 31 34 34 35 32 31 31 31 32 33 30 21 17 14 11 13 16 15 14 13 12 9 6 4 3 2 2 3 5 5 6 6 6 5 5 6 6
13 13 14 23 23 26 28 28 30 32 32 33 37 36 35 30 32 33 34 33 34 34 31 28 27 17 16 13 15 17 17 16 14 12 10 7 6 5 3 2 3 3 3 3 4 6 6 6 5
5 5 12 26 29 24 25 29 31 29 31 31 31 28 28 30 33 35 37 37 37 36 35 32 31 30 24 25 19 17 18 18 17 16 13 12 10 9 6 5 4 4 2 2 3 5 5 4 4
23 22 25 23 26 25 24 25 28 32 28 24 21 24 26 29 30 31 31 32 34 34 35 35 35 33 34 35 31 21 21 19 18 17 16 15 15 12 10 7 6 4 3 3 3 5 4 6 7
25 33 29 26 24 22 19 20 23 25 21 22 23 25 27 25 28 31 34 35 36 37 38 38 36 36 34 34 37 32 25 25 22 20 19 18 17 16 13 9 7 6 5 5 4 4 5 4 7
27 27 29 16 13 11 12 20 18 19 15 18 20 25 24 26 30 33 35 37 39 40 40 40 41 40 40 38 37 38 33 29 27 24 19 19 19 18 15 13 10 8 7 6 6 4 5 3 2
24 22 24 23 7 11 13 21 18 19 19 25 23 26 27 30 32 34 37 40 43 44 45 45 43 43 42 42 40 37 39 39 32 29 25 21 21 20 19 16 14 11 9 8 8 6 5 6 2
20 23 19 21 9 17 13 20 17 22 25 21 24 27 31 35 38 41 43 44 46 48 49 50 48 46 46 45 44 42 40 42 37 33 30 27 24 22 21 19 15 13 12 10 9 8 7 5 4
27 26 25 24 18 21 21 25 26 26 18 21 26 30 33 36 41 44 48 49 50 51 51 50 50 49 47 46 45 45 43 41 41 43 33 32 27 25 24 22 18 16 15 13 11 10 10 8 5
28 29 29 29 26 25 24 24 26 18 21 24 28 32 35 39 41 45 48 49 49 50 52 50 51 50 50 49 49 49 50 47 45 42 44 43 37 29 27 25 20 18 18 16 13 11 10 10 9
28 32 34 30 23 25 27 27 20 20 22 24 28 31 36 41 45 47 47 47 49 51 51 51 52 50 50 48 49 49 50 51 49 46 46 35 52 34 30 28 27 21 20 18 16 14 15 14 10
28 29 27 28 30 29 28 25 18 19 22 24 27 30 35 41 45 46 47 49 52 53 52 50 48 47 47 48 48 49 50 52 53 49 45 45 42 35 32 32 32 27 24 21 19 18 16 16 14
31 25 25 27 29 29 25 29 18 17 23 26 30 33 37 40 44 46 49 51 51 51 48 44 43 43 43 43 44 48 53 58 55 54 50 50 51 38 36 33 33 31 29 26 22 20 19 18 18
26 23 25 27 29 31 28 26 21 18 24 29 32 35 37 41 45 47 49 50 49 49 45 43 43 44 44 43 42 44 50 53 55 54 54 51 51 48 40 36 34 33 30 28 26 24 23 21 21
20 25 29 26 25 29 25 20 22 23 25 27 31 34 38 44 45 45 47 47 49 48 44 43 43 44 42 42 39 40 44 50 54 55 53 46 45 50 46 42 37 33 31 29 26 24 24 23 22
19 21 26 27 22 25 24 28 21 18 22 27 30 33 38 42 44 45 47 49 49 47 45 41 44 43 42 40 38 38 40 43 45 45 40 34 32 34 39 29 33 33 33 32 29 27 25 24 22
14 14 21 28 25 31 30 26 22 15 20 24 27 32 36 40 41 43 45 46 47 45 45 43 43 42 39 35 35 33 33 33 36 33 32 30 29 28 27 30 15 20 24 29 32 29 27 24 22
20 17 19 27 29 31 26 21 14 15 22 26 29 33 37 38 40 41 43 44 45 44 44 42 41 44 41 35 32 28 27 25 27 26 23 22 24 26 27 21 17 21 22 25 39 32 26 26 24
19 18 21 21 25 26 23 19 21 20 24 27 30 33 35 36 38 39 41 42 42 42 38 34 41 42 35 23 22 21 22 18 18 15 13 11 18 17 15 19 20 17 19 38 29 9 15 21 26
18 18 20 20 22 26 28 23 16 17 21 24 27 30 32 33 36 37 39 40 36 39 40 40 40 40 27 22 14 16 14 10 6 3 5 9 13 13 13 13 17 20 19 19 17 15 19 23 26
23 18 17 21 23 20 23 23 15 16 18 21 25 27 28 30 33 34 36 38 37 35 39 37 38 36 14 13 8 7 7 13 19 12 8 3 8 11 14 15 16 17 13 15 15 16 19 23 25
Wind_Direction
309 304 318 321 326 324 319 314 318 317 323 345 348 343 336 329 323 321 340 342 3 23 48 20 27 39 48 59 68 63 66 68 65 62 60 51 46 47 46 49 52 54 57 62 73 64 54 52 45
316 320 334 322 313 308 317 345 348 346 351 348 347 342 339 333 352 341 331 334 2 10 24 357 10 29 34 43 62 64 65 70 70 66 60 58 54 48 49 48 47 48 50 55 65 64 55 55 49
314 330 325 322 316 307 309 340 349 346 354 348 338 339 336 334 340 340 341 335 329 338 352 344 337 332 2 37 53 71 74 77 77 71 64 65 69 63 56 48 43 41 44 44 52 57 59 56 53
322 325 322 308 303 307 307 303 331 337 343 348 344 336 350 347 334 339 337 337 340 359 0 358 332 302 304 339 14 70 78 85 84 82 76 70 72 72 67 58 43 36 37 39 42 45 58 59 54
327 319 306 304 304 302 285 305 319 320 325 325 334 327 347 353 355 346 339 341 349 349 355 355 358 304 293 305 318 45 72 69 77 83 83 82 83 81 79 68 54 38 35 37 31 42 53 59 58
313 316 300 296 297 303 305 309 317 332 332 329 334 353 348 354 349 352 347 347 357 356 352 349 343 324 282 288 296 304 356 61 96 97 103 98 98 94 91 83 66 54 41 33 24 33 44 51 56
311 305 299 296 295 298 321 329 325 322 336 335 333 340 351 346 340 340 344 340 351 354 352 341 336 319 281 266 276 283 285 281 167 132 122 119 114 107 104 96 88 72 58 41 21 18 28 38 49
312 307 302 298 296 295 315 324 333 335 336 338 335 318 322 330 336 332 329 326 330 339 343 341 338 322 283 271 270 277 281 282 272 207 160 149 128 117 112 109 108 101 82 55 37 27 24 34 44
329 310 306 309 310 301 309 310 324 328 320 319 323 325 317 324 330 329 326 324 325 327 327 329 326 323 302 273 273 275 277 278 276 267 224 180 214 152 126 122 119 111 99 73 47 51 49 49 39
321 315 308 308 319 306 314 308 309 311 310 313 309 306 314 313 322 323 322 318 316 315 325 317 316 309 306 280 274 272 276 277 276 273 266 260 253 212 178 150 140 128 117 107 87 66 61 49 42
334 321 322 307 322 317 304 305 308 306 303 309 307 310 311 322 320 319 318 318 315 313 313 323 311 305 293 293 273 271 270 270 270 267 261 256 251 255 252 201 174 144 130 100 92 91 97 83 56
330 345 338 308 310 324 318 310 311 314 311 314 315 319 320 320 317 315 312 311 310 309 308 312 313 304 294 287 277 270 264 262 264 263 258 257 256 251 249 239 214 188 190 152 124 114 111 90 90
313 317 315 319 312 317 318 318 315 311 317 326 330 328 327 324 321 324 327 324 319 315 313 311 312 306 297 287 282 269 263 258 256 253 253 256 259 253 250 246 230 234 229 207 166 142 136 137 136
314 288 310 316 317 320 322 327 325 322 324 329 328 328 328 333 333 329 327 324 321 317 311 308 307 310 309 301 284 276 266 262 258 256 254 249 255 257 250 242 237 236 237 239 213 175 144 141 141
319 319 318 322 322 325 342 332 336 344 348 340 339 338 341 341 338 333 328 323 320 314 311 308 302 303 304 299 295 287 271 265 259 256 249 243 245 247 246 239 237 235 225 208 209 198 171 164 152
323 326 328 335 358 341 342 328 339 338 343 336 344 338 335 338 336 333 330 323 319 314 309 305 302 298 298 297 295 292 281 274 264 259 254 242 243 242 246 242 240 233 229 218 203 212 197 176 195
324 320 328 329 357 349 340 335 342 336 330 341 343 337 332 327 327 328 326 323 319 315 310 304 300 298 294 292 290 288 287 279 268 258 250 246 242 243 243 241 241 234 239 233 224 235 228 211 238
315 318 314 323 332 331 325 326 331 330 345 341 337 335 334 331 329 328 325 324 321 317 311 306 300 295 293 290 288 285 283 282 275 266 259 252 245 241 245 248 244 237 244 240 235 241 254 252 232
312 311 311 315 319 318 321 323 324 337 337 333 333 333 332 332 333 332 329 327 325 321 314 308 304 297 292 286 283 280 276 276 274 273 263 257 253 243 241 244 242 235 239 240 231 244 240 260 261
308 306 307 313 318 323 320 320 330 335 335 336 337 337 337 335 334 334 334 332 329 323 318 312 304 300 294 286 281 277 275 272 271 271 271 256 248 243 237 240 244 236 237 239 238 238 262 266 260
304 307 309 310 315 316 316 311 314 333 340 342 344 345 343 340 338 338 336 331 327 324 319 315 309 304 299 291 283 276 273 270 267 267 267 261 253 240 238 243 243 242 241 238 241 242 246 251 254
298 308 314 312 315 313 324 316 316 321 330 338 342 343 343 344 343 340 332 329 333 331 326 323 316 313 305 298 289 278 270 264 264 263 265 261 258 248 238 238 240 237 240 241 243 246 248 258 254
299 313 311 309 310 312 310 310 315 320 323 332 339 341 344 345 340 332 332 334 338 334 331 325 323 319 310 302 295 285 273 264 262 261 261 262 261 252 244 235 236 238 238 240 242 248 251 252 261
306 305 306 305 307 308 312 308 314 319 325 332 339 342 343 339 337 335 337 342 338 334 335 329 330 321 317 305 302 289 279 266 260 256 256 260 262 254 252 236 232 238 238 240 239 244 249 251 255
302 304 305 305 300 304 320 321 324 334 339 339 339 342 340 343 337 337 339 342 337 336 336 347 332 333 323 310 302 290 283 272 259 253 249 254 263 258 266 249 225 238 241 245 245 247 248 247 250
289 293 300 304 306 309 314 315 321 344 348 347 345 343 347 345 339 341 346 343 342 334 345 348 340 331 318 301 301 295 287 279 260 250 242 253 259 262 284 308 238 247 258 252 250 247 247 248 252
295 282 299 302 306 308 311 325 339 349 344 344 346 344 346 349 346 347 350 347 348 339 351 350 344 343 332 328 322 303 295 286 262 248 236 265 261 270 270 300 277 247 257 283 259 246 246 253 260
287 309 300 303 309 311 320 325 327 334 341 342 340 343 349 354 353 356 354 350 352 347 340 339 357 349 332 309 310 305 299 297 272 253 229 280 274 284 287 263 302 281 292 268 298 278 282 274 278
290 286 295 303 304 310 315 323 344 345 345 340 343 349 352 357 360 1 358 359 342 350 354 357 1 358 339 332 314 322 327 325 309 345 237 261 329 303 324 312 294 307 301 305 294 305 295 293 292
290 286 295 295 310 315 316 320 346 346 345 343 345 352 356 0 5 3 2 1 353 349 360 358 5 5 6 345 353 14 6 19 43 40 47 3 324 355 355 334 336 336 310 303 317 311 308 303 301